JCSAT-2B

Last updated on Sat Dec 13 2025 00:02:49 GMT+0000 (Coordinated Universal Time)

1 41471U 16028A 25345.87883685 -.00000157 00000+0 00000+0 0 9998 2 41471 0.0179 357.5039 0001023 267.8884 285.8121 1.00270311 35243
UTC large
Height (km)
Speed (km/s)
/
Latitude / Longitude
Inclination (degrees)
Orbital Period (minutes)
Azimuth
Elevation
Range (km)
Doppler Factor

Next 0 passes for location: London (51.5072 / 0.1276)

Sorry there are no passes over London.